SV2BZQ-1 Weather Reports


time (UTC)temp
C
wind
direction
speed
KPH
gust
KPH
rain 1hr
cm
rain 24hr
cm
rain mn
cm
humidity
%
barometer
mb
20260507133738 20 35 0.0 4.8 0.00 0.00 0.00 74 1016.0
20260507133514 20 65 1.6 4.8 0.00 0.00 0.00 74 1016.0
20260507133313 20 65 1.6 4.8 0.00 0.00 0.00 74 1015.9
20260507133110 20 65 1.6 4.8 0.00 0.00 0.00 74 1015.9
20260507132859 20 30 3.2 8.0 0.00 0.00 0.00 74 1016.0
20260507132711 20 45 3.2 8.0 0.00 0.00 0.00 73 1016.0
20260507132546 20 34 1.6 8.0 0.00 0.00 0.00 73 1016.0
20260507132245 20 45 1.6 8.0 0.00 0.00 0.00 74 1016.0
20260507132109 20 35 1.6 8.0 0.00 0.00 0.00 73 1016.0
20260507131941 20 40 1.6 6.4 0.00 0.00 0.00 74 1016.0
20260507131637 20 44 0.0 8.0 0.00 0.00 0.00 74 1016.0
20260507131429 19 35 0.0 8.0 0.00 0.00 0.00 74 1016.0
20260507131223 19 38 0.0 8.0 0.00 0.00 0.00 74 1016.0
20260507131014 19 40 0.0 8.0 0.00 0.00 0.00 74 1016.0
20260507130803 19 40 0.0 8.0 0.00 0.00 0.00 74 1016.0
20260507130555 20 40 0.0 4.8 0.00 0.00 0.00 74 1016.0
20260507130400 20 40 0.0 4.8 0.00 0.00 0.00 74 1016.0
20260507130140 20 40 0.0 4.8 0.00 0.00 0.00 74 1016.0
20260507125929 20 34 0.0 1.6 0.00 0.00 0.00 75 1016.0
20260507125723 20 11 0.0 1.6 0.00 0.00 0.00 75 1016.5
20260507125523 20 11 0.0 0.0 0.00 0.00 0.00 75 1016.5
20260507125327 19 11 0.0 1.6 0.00 0.00 0.00 75 1016.5
20260507125109 19 11 0.0 1.6 0.00 0.00 0.00 75 1016.5
20260507124902 19 11 0.0 4.8 0.00 0.00 0.00 75 1016.5
20260507124702 19 11 0.0 4.8 0.00 0.00 0.00 75 1016.5
20260507124507 19 11 0.0 8.0 0.00 0.00 0.00 75 1016.5
20260507124342 19 11 1.6 8.0 0.00 0.00 0.00 75 1016.7
20260507124031 19 11 1.6 8.0 0.00 0.00 0.00 75 1016.7
20260507123820 19 3 1.6 8.0 0.00 0.00 0.00 76 1016.7
20260507123619 19 340 1.6 8.0 0.00 0.00 0.00 76 1016.7
20260507123427 19 0 1.6 8.0 0.00 0.00 0.00 76 1016.7
20260507123007 18 343 1.6 8.0 0.00 0.00 0.00 76 1016.7
20260507122757 18 315 1.6 8.0 0.00 0.00 0.00 76 1016.2
20260507122602 18 340 1.6 8.0 0.00 0.00 0.00 76 1016.2
20260507122427 18 313 1.6 8.0 0.00 0.00 0.00 76 1016.2
20260507122147 18 312 3.2 9.7 0.00 0.00 0.00 75 1016.2
20260507121934 18 295 3.2 9.7 0.00 0.00 0.00 76 1016.2
20260507121736 18 325 4.8 9.7 0.00 0.00 0.00 76 1016.2
20260507121530 18 339 4.8 11.3 0.00 0.00 0.00 76 1016.2
20260507121324 18 356 4.8 11.3 0.00 0.00 0.00 76 1016.8
20260507121126 18 336 4.8 11.3 0.00 0.00 0.00 76 1016.8
20260507120931 18 353 3.2 11.3 0.00 0.00 0.00 76 1016.8
20260507120727 18 32 3.2 11.3 0.00 0.00 0.00 76 1016.8
20260507120529 18 0 3.2 9.7 0.00 0.00 0.00 76 1016.8
20260507120329 18 21 3.2 9.7 0.00 0.00 0.00 76 1016.8
20260507120130 18 27 3.2 9.7 0.00 0.00 0.00 76 1016.8
20260507115921 18 38 3.2 9.7 0.00 0.00 0.00 76 1016.8
20260507115722 18 27 3.2 11.3 0.00 0.00 0.00 76 1017.4
20260507115516 18 11 3.2 11.3 0.00 0.00 0.00 77 1017.4
20260507115313 18 301 3.2 11.3 0.00 0.00 0.00 77 1017.4
20260507115118 18 325 3.2 11.3 0.00 0.00 0.00 78 1017.4
20260507114914 18 306 3.2 11.3 0.00 0.00 0.00 78 1017.4
20260507114723 18 305 3.2 11.3 0.00 0.00 0.00 80 1017.4
20260507114537 18 0 4.8 11.3 0.00 0.00 0.00 80 1017.4
20260507114357 18 337 4.8 11.3 0.00 0.00 0.00 80 1017.4
20260507114105 18 6 4.8 11.3 0.00 0.00 0.00 80 1017.4
20260507113911 18 329 4.8 11.3 0.00 0.00 0.00 81 1017.4
20260507113712 18 359 4.8 11.3 0.00 0.00 0.00 81 1017.4
20260507113518 18 0 4.8 11.3 0.00 0.00 0.00 81 1017.4
20260507113301 18 333 3.2 11.3 0.00 0.00 0.00 82 1017.4
20260507113102 18 323 3.2 11.3 0.00 0.00 0.00 82 1017.4
20260507112900 18 326 3.2 11.3 0.00 0.00 0.00 82 1017.3
20260507112705 18 343 1.6 11.3 0.00 0.00 0.00 84 1017.3
20260507112457 18 323 1.6 9.7 0.00 0.00 0.00 83 1017.3
20260507112256 18 318 1.6 8.0 0.00 0.00 0.00 83 1017.3
20260507112100 18 292 1.6 8.0 0.00 0.00 0.00 83 1017.3
20260507111901 18 350 1.6 8.0 0.00 0.00 0.00 83 1017.3
20260507111433 18 13 1.6 8.0 0.00 0.00 0.00 82 1017.3
20260507111233 18 337 1.6 8.0 0.00 0.00 0.00 82 1017.4
20260507111022 18 59 1.6 4.8 0.00 0.00 0.00 82 1017.4
20260507110829 18 346 1.6 4.8 0.00 0.00 0.00 81 1017.4
20260507110423 18 316 0.0 4.8 0.00 0.00 0.00 80 1017.4
20260507110259 18 339 1.6 4.8 0.00 0.00 0.00 80 1017.4
20260507105951 18 343 1.6 8.0 0.00 0.00 0.00 80 1017.4
20260507105752 18 311 1.6 8.0 0.00 0.00 0.00 79 1017.4
20260507105126 18 332 1.6 8.0 0.00 0.00 0.00 78 1017.4
20260507104925 18 0 1.6 8.0 0.00 0.00 0.00 77 1017.4
20260507104720 18 347 1.6 8.0 0.00 0.00 0.00 77 1017.4
20260507104520 18 342 1.6 8.0 0.00 0.00 0.00 76 1017.4
20260507104315 18 328 1.6 8.0 0.00 0.00 0.00 76 1017.4
20260507104116 18 325 1.6 8.0 0.00 0.00 0.00 75 1017.4
20260507103902 18 325 1.6 8.0 0.00 0.00 0.00 75 1017.4
20260507103656 18 328 1.6 9.7 0.00 0.00 0.00 75 1017.4
20260507103436 18 299 1.6 9.7 0.00 0.00 0.00 74 1017.4
20260507103243 18 302 3.2 9.7 0.00 0.00 0.00 74 1017.4
20260507102816 18 344 3.2 9.7 0.00 0.00 0.00 73 1017.2
20260507102612 18 320 1.6 8.0 0.00 0.00 0.00 73 1017.2
20260507102412 19 347 1.6 8.0 0.00 0.00 0.00 72 1017.2
20260507102159 19 11 1.6 9.7 0.00 0.00 0.00 72 1017.2
20260507101950 19 333 1.6 9.7 0.00 0.00 0.00 71 1017.2
20260507101803 19 350 1.6 9.7 0.00 0.00 0.00 71 1017.2
20260507101645 19 336 1.6 9.7 0.00 0.00 0.00 71 1017.2
20260507101347 19 349 0.0 8.0 0.00 0.00 0.00 71 1017.2
20260507101147 19 344 0.0 8.0 0.00 0.00 0.00 72 1017.2
20260507100947 19 0 0.0 8.0 0.00 0.00 0.00 72 1017.2
20260507100750 19 21 0.0 4.8 0.00 0.00 0.00 72 1017.2
20260507100548 19 21 0.0 4.8 0.00 0.00 0.00 72 1017.2
20260507100401 19 24 0.0 4.8 0.00 0.00 0.00 72 1017.2
20260507100124 19 3 0.0 4.8 0.00 0.00 0.00 72 1017.2
20260507095953 19 3 0.0 4.8 0.00 0.00 0.00 72 1017.1
20260507095715 19 325 0.0 6.4 0.00 0.00 0.00 71 1017.1
20260507095543 19 0 1.6 8.0 0.00 0.00 0.00 71 1017.1
20260507095257 19 11 1.6 8.0 0.00 0.00 0.00 70 1017.1
20260507095137 19 11 3.2 8.0 0.00 0.00 0.00 70 1017.1
20260507094800 19 10 3.2 8.0 0.00 0.00 0.00 69 1017.1
20260507094620 19 0 3.2 9.7 0.00 0.00 0.00 69 1017.1
20260507094327 19 342 4.8 9.7 0.00 0.00 0.00 69 1017.0
20260507094125 19 0 4.8 9.7 0.00 0.00 0.00 69 1017.0
20260507093728 19 0 4.8 11.3 0.00 0.00 0.00 69 1017.0
20260507093513 19 0 4.8 11.3 0.00 0.00 0.00 69 1017.0
20260507093308 19 344 4.8 11.3 0.00 0.00 0.00 69 1017.0
20260507093105 19 352 4.8 11.3 0.00 0.00 0.00 68 1017.0
20260507092703 19 333 3.2 9.7 0.00 0.00 0.00 69 1016.9
20260507092505 19 356 3.2 9.7 0.00 0.00 0.00 69 1016.9
20260507092312 19 0 3.2 11.3 0.00 0.00 0.00 69 1016.9
20260507092129 19 330 3.2 11.3 0.00 0.00 0.00 69 1016.9
20260507092002 19 0 3.2 11.3 0.00 0.00 0.00 69 1016.9
20260507091707 19 354 3.2 11.3 0.00 0.00 0.00 69 1016.9
20260507091545 19 350 3.2 11.3 0.00 0.00 0.00 69 1016.9
20260507091246 19 0 3.2 9.7 0.00 0.00 0.00 70 1016.5
20260507091048 19 0 3.2 9.7 0.00 0.00 0.00 70 1016.5
20260507090843 19 326 3.2 9.7 0.00 0.00 0.00 70 1016.5
20260507090645 19 0 3.2 9.7 0.00 0.00 0.00 70 1016.5
20260507090447 19 329 3.2 9.7 0.00 0.00 0.00 70 1016.5
20260507090240 19 336 3.2 9.7 0.00 0.00 0.00 70 1016.5
20260507090045 19 18 3.2 11.3 0.00 0.00 0.00 70 1016.5
20260507085842 19 0 3.2 11.3 0.00 0.00 0.00 70 1016.3
20260507085644 19 0 3.2 11.3 0.00 0.00 0.00 70 1016.3
20260507085447 19 27 3.2 11.3 0.00 0.00 0.00 70 1016.3
20260507085300 19 0 3.2 11.3 0.00 0.00 0.00 70 1016.3
20260507085123 19 3 3.2 11.3 0.00 0.00 0.00 71 1016.3
20260507084906 19 17 3.2 9.7 0.00 0.00 0.00 71 1016.3
20260507084620 19 25 3.2 9.7 0.00 0.00 0.00 71 1016.3
20260507084412 19 20 4.8 9.7 0.00 0.00 0.00 70 1016.3
20260507084215 19 14 4.8 9.7 0.00 0.00 0.00 70 1016.1
20260507084010 19 0 3.2 9.7 0.00 0.00 0.00 71 1016.1
20260507083606 19 0 4.8 11.3 0.00 0.00 0.00 70 1016.1
20260507083407 19 20 4.8 11.3 0.00 0.00 0.00 70 1016.1
20260507083221 19 1 4.8 11.3 0.00 0.00 0.00 70 1016.1
20260507083023 19 11 4.8 11.3 0.00 0.00 0.00 69 1016.1
20260507082836 19 47 4.8 11.3 0.00 0.00 0.00 69 1016.0
20260507082704 19 352 4.8 11.3 0.00 0.00 0.00 69 1016.0
20260507082435 20 357 3.2 12.9 0.00 0.00 0.00 69 1016.0
20260507082200 20 0 3.2 12.9 0.00 0.00 0.00 68 1016.0
20260507081958 20 20 3.2 12.9 0.00 0.00 0.00 68 1016.0
20260507081750 20 10 3.2 12.9 0.00 0.00 0.00 67 1016.0
20260507081550 20 31 3.2 12.9 0.00 0.00 0.00 67 1016.0
20260507081354 20 356 1.6 9.7 0.00 0.00 0.00 67 1016.0
20260507081141 20 0 3.2 9.7 0.00 0.00 0.00 67 1016.0
20260507080940 20 34 1.6 9.7 0.00 0.00 0.00 66 1016.0
20260507080739 20 356 3.2 9.7 0.00 0.00 0.00 66 1016.0
20260507080542 20 24 3.2 9.7 0.00 0.00 0.00 66 1016.0
20260507080337 20 320 3.2 9.7 0.00 0.00 0.00 66 1016.0
20260507080127 20 343 1.6 9.7 0.00 0.00 0.00 66 1016.0
20260507075928 20 11 1.6 8.0 0.00 0.00 0.00 66 1016.0
20260507075728 20 342 1.6 8.0 0.00 0.00 0.00 67 1015.9
20260507075526 20 257 1.6 8.0 0.00 0.00 0.00 66 1015.9
20260507075325 20 291 1.6 8.0 0.00 0.00 0.00 67 1015.9
20260507075140 20 281 1.6 8.0 0.00 0.00 0.00 68 1015.8
20260507075011 20 336 1.6 9.7 0.00 0.00 0.00 68 1015.8
20260507074838 20 13 3.2 11.3 0.00 0.00 0.00 68 1015.8
20260507074651 20 299 3.2 11.3 0.00 0.00 0.00 68 1015.8
20260507074518 19 356 4.8 11.3 0.00 0.00 0.00 69 1015.8
20260507074324 19 328 4.8 11.3 0.00 0.00 0.00 69 1015.8
20260507074115 19 305 3.2 11.3 0.00 0.00 0.00 69 1015.8
20260507073836 19 272 3.2 11.3 0.00 0.00 0.00 70 1015.8
20260507073634 19 312 3.2 11.3 0.00 0.00 0.00 70 1015.8
20260507073406 19 294 1.6 9.7 0.00 0.00 0.00 71 1015.8
20260507073155 19 284 3.2 11.3 0.00 0.00 0.00 72 1015.8
20260507072924 19 284 3.2 11.3 0.00 0.00 0.00 73 1015.9
20260507072707 19 18 4.8 11.3 0.00 0.00 0.00 74 1015.9
20260507072516 18 333 4.8 11.3 0.00 0.00 0.00 73 1015.9
20260507072300 18 0 3.2 11.3 0.00 0.00 0.00 74 1015.9
20260507072106 18 313 3.2 12.9 0.00 0.00 0.00 75 1015.9
20260507071841 18 0 3.2 12.9 0.00 0.00 0.00 75 1015.9
20260507071635 18 299 4.8 12.9 0.00 0.00 0.00 76 1015.9
20260507071421 18 319 4.8 12.9 0.00 0.00 0.00 76 1015.9
20260507071221 18 332 4.8 14.5 0.00 0.00 0.00 76 1015.8
20260507071018 18 335 4.8 14.5 0.00 0.00 0.00 77 1015.8
20260507070813 18 326 4.8 14.5 0.00 0.00 0.00 78 1015.8
20260507070617 18 340 3.2 14.5 0.00 0.00 0.00 78 1015.8
20260507070410 18 318 3.2 14.5 0.00 0.00 0.00 79 1015.8
20260507070215 18 316 3.2 9.7 0.00 0.00 0.00 79 1015.8
20260507070020 18 289 1.6 9.7 0.00 0.00 0.00 80 1015.8
20260507065822 18 328 1.6 9.7 0.00 0.00 0.00 80 1015.7
20260507065610 18 318 1.6 9.7 0.00 0.00 0.00 81 1015.7
20260507065412 18 315 3.2 9.7 0.00 0.00 0.00 81 1015.7
20260507065204 18 357 3.2 9.7 0.00 0.00 0.00 82 1015.7
20260507065010 17 0 3.2 9.7 0.00 0.00 0.00 82 1015.7
20260507064818 17 0 4.8 11.3 0.00 0.00 0.00 82 1015.7
20260507064633 17 3 4.8 11.3 0.00 0.00 0.00 82 1015.7
20260507064509 17 333 3.2 11.3 0.00 0.00 0.00 82 1015.9
20260507064233 17 0 3.2 11.3 0.00 0.00 0.00 82 1015.9
20260507064102 17 40 1.6 11.3 0.00 0.00 0.00 82 1015.9
20260507063933 17 0 1.6 9.7 0.00 0.00 0.00 82 1015.9
20260507063649 17 21 1.6 9.7 0.00 0.00 0.00 83 1015.9
20260507063451 17 34 1.6 9.7 0.00 0.00 0.00 82 1015.9
20260507063158 17 37 0.0 4.8 0.00 0.00 0.00 83 1015.9
20260507062950 17 31 1.6 4.8 0.00 0.00 0.00 83 1015.9
20260507062753 17 23 1.6 4.8 0.00 0.00 0.00 83 1015.9
20260507062529 17 0 1.6 4.8 0.00 0.00 0.00 83 1015.9
20260507062343 17 0 1.6 4.8 0.00 0.00 0.00 83 1015.9
20260507062126 17 346 1.6 6.4 0.00 0.00 0.00 83 1015.9
20260507061925 17 339 1.6 9.7 0.00 0.00 0.00 83 1015.9
20260507061522 17 49 3.2 9.7 0.00 0.00 0.00 83 1015.9
20260507061335 17 356 3.2 9.7 0.00 0.00 0.00 83 1015.8
20260507061118 17 34 3.2 9.7 0.00 0.00 0.00 83 1015.8
20260507060919 17 0 3.2 9.7 0.00 0.00 0.00 83 1015.8
20260507060718 17 18 3.2 9.7 0.00 0.00 0.00 83 1015.8
20260507060543 17 27 3.2 9.7 0.00 0.00 0.00 83 1015.8
20260507060350 17 28 3.2 9.7 0.00 0.00 0.00 83 1015.8
20260507060147 17 32 3.2 9.7 0.00 0.00 0.00 83 1015.8
20260507055949 17 38 3.2 9.7 0.00 0.00 0.00 83 1015.7
20260507055749 17 30 3.2 9.7 0.00 0.00 0.00 84 1015.7
20260507055605 17 38 3.2 9.7 0.00 0.00 0.00 84 1015.7
20260507055310 17 30 3.2 9.7 0.00 0.00 0.00 84 1015.7
20260507055059 17 34 3.2 9.7 0.00 0.00 0.00 85 1015.7
20260507054916 17 13 4.8 9.7 0.00 0.00 0.00 85 1015.7
20260507054743 17 13 4.8 9.7 0.00 0.00 0.00 85 1015.7
20260507054609 17 18 4.8 11.3 0.00 0.00 0.00 86 1015.7
20260507054438 16 4 4.8 11.3 0.00 0.00 0.00 86 1015.6
20260507054154 16 357 6.4 11.3 0.00 0.00 0.00 86 1015.6
20260507054027 16 14 4.8 11.3 0.00 0.00 0.00 86 1015.6
20260507053841 16 6 4.8 11.3 0.00 0.00 0.00 86 1015.6
20260507053540 16 8 4.8 9.7 0.00 0.00 0.00 86 1015.6
20260507053340 16 8 4.8 9.7 0.00 0.00 0.00 86 1015.6
20260507053044 16 14 3.2 9.7 0.00 0.00 0.00 86 1015.6
20260507052840 16 4 3.2 9.7 0.00 0.00 0.00 86 1015.4
20260507052648 16 6 3.2 8.0 0.00 0.00 0.00 86 1015.4
20260507052515 16 10 3.2 4.8 0.00 0.00 0.00 86 1015.4
20260507052340 16 14 3.2 8.0 0.00 0.00 0.00 86 1015.4
20260507052032 16 20 3.2 8.0 0.00 0.00 0.00 86 1015.4
20260507051846 16 32 1.6 8.0 0.00 0.00 0.00 87 1015.4
20260507051625 16 21 1.6 8.0 0.00 0.00 0.00 87 1015.4
20260507051418 16 17 1.6 8.0 0.00 0.00 0.00 87 1015.4
20260507051015 16 31 0.0 4.8 0.00 0.00 0.00 88 1015.4
20260507050819 16 23 0.0 4.8 0.00 0.00 0.00 88 1015.4
20260507050620 16 13 0.0 1.6 0.00 0.00 0.00 88 1015.3
20260507050422 15 13 0.0 0.0 0.00 0.00 0.00 89 1015.3
20260507045950 15 13 0.0 0.0 0.00 0.00 0.00 89 1015.3
20260507045753 15 13 0.0 0.0 0.00 0.00 0.00 89 1015.2
20260507045600 15 14 0.0 0.0 0.00 0.00 0.00 89 1015.2
20260507045338 15 14 0.0 0.0 0.00 0.00 0.00 88 1015.2
20260507045140 15 23 0.0 0.0 0.00 0.00 0.00 88 1015.2
20260507044928 15 27 0.0 0.0 0.00 0.00 0.00 88 1015.2
20260507044744 15 14 0.0 0.0 0.00 0.00 0.00 88 1015.2
20260507044557 15 17 0.0 0.0 0.00 0.00 0.00 88 1015.2
20260507044418 15 45 0.0 0.0 0.00 0.00 0.00 88 1015.0
20260507044145 15 48 0.0 0.0 0.00 0.00 0.00 88 1015.0
20260507043919 15 14 0.0 0.0 0.00 0.00 0.00 88 1015.0
20260507043712 15 14 0.0 0.0 0.00 0.00 0.00 89 1015.0
20260507043518 15 14 0.0 0.0 0.00 0.00 0.00 89 1015.0
20260507043254 15 13 0.0 0.0 0.00 0.00 0.00 89 1015.0
20260507043057 15 13 0.0 0.0 0.00 0.00 0.00 89 1015.0
20260507042850 15 13 0.0 0.0 0.00 0.00 0.00 90 1015.2
20260507042646 15 13 0.0 0.0 0.00 0.00 0.00 89 1015.2
20260507042421 15 13 0.0 0.0 0.00 0.00 0.00 90 1015.2
20260507042209 15 20 0.0 0.0 0.00 0.00 0.00 90 1015.2
20260507042008 15 27 0.0 0.0 0.00 0.00 0.00 90 1015.2
20260507041813 14 44 0.0 0.0 0.00 0.00 0.00 89 1015.2
20260507041618 14 25 0.0 0.0 0.00 0.00 0.00 89 1015.2
20260507041416 14 30 0.0 0.0 0.00 0.00 0.00 89 1014.9
20260507041259 14 13 0.0 0.0 0.00 0.00 0.00 89 1014.9
20260507041007 14 13 0.0 0.0 0.00 0.00 0.00 89 1014.9
20260507040751 14 13 0.0 0.0 0.00 0.00 0.00 89 1014.9
20260507040416 14 13 0.0 0.0 0.00 0.00 0.00 89 1014.9
20260507040210 13 13 0.0 0.0 0.00 0.00 0.00 89 1014.9
20260507040011 13 13 0.0 0.0 0.00 0.00 0.00 88 1014.9
20260507035925 13 13 0.0 4.8 0.00 0.00 0.00 84 1014.6
20260507035814 13 13 0.0 0.0 0.00 0.00 0.00 88 1014.8
20260507035548 13 13 0.0 1.6 0.00 0.00 0.00 88 1014.8
20260507035420 13 13 0.0 1.6 0.00 0.00 0.00 88 1014.8
20260507035221 13 0 0.0 1.6 0.00 0.00 0.00 87 1014.8
20260507034925 13 0 0.0 3.2 0.00 0.00 0.00 87 1014.8
20260507034740 13 0 0.0 3.2 0.00 0.00 0.00 87 1014.8
20260507034629 13 0 0.0 3.2 0.00 0.00 0.00 87 1014.8
20260507034405 13 349 0.0 0.0 0.00 0.00 0.00 86 1014.8
20260507034258 13 349 0.0 0.0 0.00 0.00 0.00 86 1014.8
20260507034127 13 349 0.0 0.0 0.00 0.00 0.00 86 1014.8
20260507034023 13 349 0.0 0.0 0.00 0.00 0.00 86 1014.8
20260507033905 13 349 0.0 4.8 0.00 0.00 0.00 86 1014.7
20260507033738 13 349 0.0 4.8 0.00 0.00 0.00 86 1014.7
20260507033445 13 0 1.6 4.8 0.00 0.00 0.00 86 1014.7
20260507033313 13 0 1.6 4.8 0.00 0.00 0.00 85 1014.7
20260507033108 13 359 1.6 4.8 0.00 0.00 0.00 85 1014.7
20260507032718 13 353 1.6 4.8 0.00 0.00 0.00 85 1014.7
20260507032010 13 325 0.0 3.2 0.00 0.00 0.00 84 1014.6
20260507031838 13 13 0.0 4.8 0.00 0.00 0.00 84 1014.6
20260507031556 13 14 0.0 4.8 0.00 0.00 0.00 84 1014.6
20260507031310 13 13 0.0 4.8 0.00 0.00 0.00 84 1014.6
20260507030818 13 16 0.0 4.8 0.00 0.00 0.00 84 1014.6
20260507030620 13 295 0.0 0.0 0.00 0.00 0.00 84 1014.4
20260507030321 13 295 0.0 0.0 0.00 0.00 0.00 84 1014.4
20260507030138 13 294 0.0 0.0 0.00 0.00 0.00 84 1014.4
20260507025905 13 285 0.0 0.0 0.00 0.00 0.00 84 1014.4
20260507025645 13 285 0.0 0.0 0.00 0.00 0.00 84 1014.4
20260507025143 13 285 0.0 0.0 0.00 0.00 0.00 84 1014.4
20260507024938 14 285 0.0 0.0 0.00 0.00 0.00 84 1014.4
20260507024739 14 285 0.0 0.0 0.00 0.00 0.00 84 1014.4
20260507024417 14 285 0.0 0.0 0.00 0.00 0.00 85 1014.4
20260507024016 14 285 0.0 0.0 0.00 0.00 0.00 85 1014.4
20260507023708 14 287 0.0 0.0 0.00 0.00 0.00 85 1014.4
20260507023331 14 285 0.0 0.0 0.00 0.00 0.00 85 1014.4
20260507023101 14 282 0.0 0.0 0.00 0.00 0.00 85 1014.4
20260507022746 14 282 0.0 0.0 0.00 0.00 0.00 85 1014.3
20260507022604 14 282 0.0 0.0 0.00 0.00 0.00 85 1014.3
20260507022407 14 282 0.0 0.0 0.00 0.00 0.00 86 1014.3
20260507022159 14 282 0.0 0.0 0.00 0.00 0.00 86 1014.3
20260507021902 14 282 0.0 0.0 0.00 0.00 0.00 86 1014.3
20260507021656 14 282 0.0 0.0 0.00 0.00 0.00 86 1014.3
20260507021456 15 282 0.0 0.0 0.00 0.00 0.00 86 1014.3
20260507021244 15 282 0.0 0.0 0.00 0.00 0.00 86 1014.3
20260507021042 15 282 0.0 0.0 0.00 0.00 0.00 86 1014.3
20260507020818 15 282 0.0 0.0 0.00 0.00 0.00 86 1014.3
20260507020621 15 282 0.0 0.0 0.00 0.00 0.00 86 1014.3
20260507020408 15 282 0.0 0.0 0.00 0.00 0.00 87 1014.3
20260507020151 15 282 0.0 0.0 0.00 0.00 0.00 87 1014.3
20260507015948 15 282 0.0 0.0 0.00 0.00 0.00 87 1014.3
20260507015740 15 282 0.0 0.0 0.00 0.00 0.00 88 1014.2
20260507015459 15 282 0.0 0.0 0.00 0.00 0.00 88 1014.2
20260507015255 15 282 0.0 0.0 0.00 0.00 0.00 88 1014.2
20260507015048 15 282 0.0 0.0 0.00 0.00 0.00 89 1014.2
20260507014838 14 315 0.0 0.0 0.00 0.00 0.00 89 1014.2
20260507014636 14 312 0.0 0.0 0.00 0.00 0.00 89 1014.2
20260507014438 14 312 0.0 0.0 0.00 0.00 0.00 89 1014.2
20260507014235 14 311 0.0 0.0 0.00 0.00 0.00 89 1014.2
20260507014039 14 313 0.0 1.6 0.00 0.00 0.00 89 1014.2
20260507013833 14 311 0.0 1.6 0.00 0.00 0.00 89 1014.2
20260507013633 14 308 0.0 1.6 0.00 0.00 0.00 90 1014.2
20260507013435 14 308 0.0 3.2 0.00 0.00 0.00 90 1014.2
20260507013235 14 308 0.0 3.2 0.00 0.00 0.00 90 1014.2
20260507012832 14 308 0.0 3.2 0.00 0.00 0.00 90 1014.1
20260507012624 14 312 0.0 3.2 0.00 0.00 0.00 90 1014.1
20260507012423 14 308 0.0 3.2 0.00 0.00 0.00 91 1014.1
20260507012221 14 301 0.0 0.0 0.00 0.00 0.00 91 1014.1
20260507011821 14 302 0.0 0.0 0.00 0.00 0.00 91 1014.1
20260507011623 14 305 0.0 1.6 0.00 0.00 0.00 91 1014.1
20260507011410 14 302 0.0 1.6 0.00 0.00 0.00 91 1014.1
20260507011220 14 305 0.0 1.6 0.00 0.00 0.00 91 1014.1
20260507011023 15 301 0.0 1.6 0.00 0.00 0.00 91 1014.1
20260507010837 15 302 0.0 1.6 0.00 0.00 0.00 91 1014.1
20260507010711 15 302 0.0 0.0 0.00 0.00 0.00 91 1014.1
20260507010417 15 296 0.0 0.0 0.00 0.00 0.00 92 1014.1
20260507010211 15 299 0.0 0.0 0.00 0.00 0.00 92 1014.1
20260507010013 15 299 0.0 1.6 0.00 0.00 0.00 92 1014.1
20260507005803 15 296 0.0 1.6 0.00 0.00 0.00 92 1013.9
20260507005601 15 294 0.0 1.6 0.00 0.00 0.00 92 1013.9
20260507005403 15 292 0.0 1.6 0.00 0.00 0.00 92 1013.9
20260507005155 15 301 0.0 1.6 0.00 0.00 0.00 92 1013.9
20260507004748 14 296 0.0 0.0 0.00 0.00 0.00 93 1013.9
20260507004546 14 299 0.0 0.0 0.00 0.00 0.00 92 1013.9
20260507004348 14 299 0.0 0.0 0.00 0.00 0.00 92 1013.9
20260507004145 14 298 0.0 1.6 0.00 0.00 0.00 91 1013.9
20260507003933 14 299 0.0 1.6 0.00 0.00 0.00 91 1013.9
20260507003732 14 299 0.0 1.6 0.00 0.00 0.00 92 1013.9
20260507003529 14 299 0.0 1.6 0.00 0.00 0.00 92 1013.9
20260507003321 14 299 0.0 1.6 0.00 0.00 0.00 92 1013.9
20260507003118 15 299 0.0 0.0 0.00 0.00 0.00 91 1013.9
20260507002911 15 301 0.0 0.0 0.00 0.00 0.00 91 1013.8
20260507002719 15 304 0.0 0.0 0.00 0.00 0.00 91 1013.8
20260507002520 15 299 0.0 0.0 0.00 0.00 0.00 92 1013.8
20260507002312 15 299 0.0 0.0 0.00 0.00 0.00 92 1013.8
20260507002115 15 302 0.0 0.0 0.00 0.00 0.00 91 1013.8
20260507001908 15 301 0.0 0.0 0.00 0.00 0.00 92 1013.8
20260507001706 15 298 0.0 0.0 0.00 0.00 0.00 91 1013.8
20260507001511 15 299 0.0 0.0 0.00 0.00 0.00 91 1013.8
20260507001310 15 301 0.0 0.0 0.00 0.00 0.00 91 1013.8
20260507001101 15 301 0.0 0.0 0.00 0.00 0.00 91 1013.8
20260507000857 15 299 0.0 0.0 0.00 0.00 0.00 91 1013.8
20260507000640 15 304 0.0 0.0 0.00 0.00 0.00 91 1013.8
20260506235826 15 301 0.0 3.2 0.00 0.00 0.00 91 1013.8
20260506235650 15 302 0.0 3.2 0.00 0.00 0.00 90 1013.8
20260506235438 15 301 0.0 3.2 0.00 0.00 0.00 90 1013.8
20260506235232 15 301 0.0 1.6 0.00 0.00 0.00 90 1013.8
20260506235025 15 302 0.0 0.0 0.00 0.00 0.00 90 1013.8
20260506234828 15 299 0.0 0.0 0.00 0.00 0.00 90 1013.8
20260506234632 15 299 0.0 0.0 0.00 0.00 0.00 90 1013.8
20260506234419 15 295 0.0 0.0 0.00 0.00 0.00 90 1013.9
20260506234216 15 295 0.0 0.0 0.00 0.00 0.00 89 1013.9
20260506234008 15 295 0.0 0.0 0.00 0.00 0.00 89 1013.9
20260506233816 15 294 0.0 0.0 0.00 0.00 0.00 90 1013.9
20260506233654 15 294 0.0 0.0 0.00 0.00 0.00 90 1013.9
20260506233404 15 294 0.0 0.0 0.00 0.00 0.00 90 1013.9
20260506233232 15 292 0.0 0.0 0.00 0.00 0.00 90 1013.9
20260506232954 15 295 0.0 0.0 0.00 0.00 0.00 90 1013.9
20260506232752 15 295 0.0 0.0 0.00 0.00 0.00 90 1014.2
20260506232602 15 299 0.0 0.0 0.00 0.00 0.00 90 1014.2
20260506232351 15 295 0.0 0.0 0.00 0.00 0.00 89 1014.2
20260506232146 15 287 0.0 0.0 0.00 0.00 0.00 89 1014.2
20260506231944 15 299 0.0 0.0 0.00 0.00 0.00 89 1014.2
20260506231814 15 299 0.0 1.6 0.00 0.00 0.00 89 1014.2
20260506231654 15 296 0.0 4.8 0.00 0.00 0.00 89 1014.2
20260506231340 15 301 0.0 4.8 0.00 0.00 0.00 89 1014.3
20260506231139 15 299 0.0 4.8 0.00 0.00 0.00 89 1014.3
20260506230936 15 299 0.0 4.8 0.00 0.00 0.00 89 1014.3
20260506230737 15 299 0.0 4.8 0.00 0.00 0.00 89 1014.3
20260506230550 15 298 0.0 3.2 0.00 0.00 0.00 89 1014.3
20260506230353 15 284 0.0 3.2 0.00 0.00 0.00 89 1014.3
20260506230220 15 289 0.0 3.2 0.00 0.00 0.00 88 1014.3
20260506225936 15 296 0.0 3.2 0.00 0.00 0.00 88 1014.3
20260506225735 14 292 0.0 3.2 0.00 0.00 0.00 88 1014.3
20260506225541 14 295 0.0 3.2 0.00 0.00 0.00 88 1014.3
20260506225335 14 271 0.0 3.2 0.00 0.00 0.00 88 1014.3
20260506225141 14 277 0.0 3.2 0.00 0.00 0.00 87 1014.3
20260506224940 14 272 0.0 1.6 0.00 0.00 0.00 87 1014.3
20260506224738 14 268 0.0 0.0 0.00 0.00 0.00 87 1014.3
20260506224542 14 267 0.0 3.2 0.00 0.00 0.00 87 1014.3
20260506224337 14 267 0.0 3.2 0.00 0.00 0.00 87 1014.2
20260506224130 14 270 0.0 3.2 0.00 0.00 0.00 86 1014.2
20260506223929 14 263 0.0 3.2 0.00 0.00 0.00 86 1014.2
20260506223725 14 257 0.0 3.2 0.00 0.00 0.00 86 1014.2
20260506223320 14 271 0.0 1.6 0.00 0.00 0.00 86 1014.2
20260506223142 14 282 0.0 1.6 0.00 0.00 0.00 86 1014.2
20260506223009 14 291 0.0 1.6 0.00 0.00 0.00 85 1014.2
20260506222725 14 294 0.0 1.6 0.00 0.00 0.00 85 1014.3
20260506222352 14 250 0.0 0.0 0.00 0.00 0.00 85 1014.3
20260506222110 14 272 0.0 0.0 0.00 0.00 0.00 85 1014.3
20260506221919 14 250 0.0 1.6 0.00 0.00 0.00 85 1014.3
20260506221739 14 284 0.0 3.2 0.00 0.00 0.00 84 1014.3
20260506221617 14 264 0.0 3.2 0.00 0.00 0.00 84 1014.3
20260506221308 14 289 0.0 3.2 0.00 0.00 0.00 84 1014.3
20260506221108 14 246 0.0 3.2 0.00 0.00 0.00 83 1014.3
20260506220904 14 246 0.0 3.2 0.00 0.00 0.00 83 1014.3
20260506220703 14 251 0.0 3.2 0.00 0.00 0.00 82 1014.3
20260506220514 14 272 0.0 3.2 0.00 0.00 0.00 82 1014.3
20260506220304 14 250 0.0 3.2 0.00 0.00 0.00 82 1014.3
20260506220125 14 257 0.0 3.2 0.00 0.00 0.00 82 1014.3
20260506215858 14 282 0.0 3.2 0.00 0.00 0.00 82 1014.2
20260506215702 14 250 0.0 0.0 0.00 0.00 0.00 82 1014.2
20260506215307 14 241 0.0 0.0 0.00 0.00 0.00 81 1014.2
20260506215109 14 253 0.0 0.0 0.00 0.00 0.00 81 1014.2
20260506214904 14 253 0.0 0.0 0.00 0.00 0.00 81 1014.2
20260506214703 14 244 0.0 0.0 0.00 0.00 0.00 81 1014.2
20260506214507 14 246 0.0 0.0 0.00 0.00 0.00 81 1014.2
20260506214316 14 253 0.0 3.2 0.00 0.00 0.00 80 1014.1
20260506214150 14 243 0.0 3.2 0.00 0.00 0.00 80 1014.1
20260506213855 14 246 0.0 3.2 0.00 0.00 0.00 80 1014.1
20260506213650 14 244 0.0 3.2 0.00 0.00 0.00 80 1014.1
20260506213246 15 253 0.0 4.8 0.00 0.00 0.00 80 1014.1
20260506213046 15 248 0.0 4.8 0.00 0.00 0.00 80 1014.1
20260506212841 15 257 0.0 4.8 0.00 0.00 0.00 80 1014.1
20260506212647 15 258 1.6 4.8 0.00 0.00 0.00 79 1014.1
20260506212436 15 254 1.6 4.8 0.00 0.00 0.00 79 1014.1
20260506212232 15 250 0.0 3.2 0.00 0.00 0.00 79 1014.1
20260506212030 15 250 0.0 3.2 0.00 0.00 0.00 79 1014.1
20260506211826 15 251 0.0 3.2 0.00 0.00 0.00 79 1014.1
20260506211620 15 246 0.0 3.2 0.00 0.00 0.00 78 1014.1
20260506211414 15 243 0.0 3.2 0.00 0.00 0.00 78 1014.1
20260506211210 15 244 0.0 3.2 0.00 0.00 0.00 78 1014.1
20260506211037 15 247 0.0 3.2 0.00 0.00 0.00 78 1014.1
20260506210830 15 239 0.0 0.0 0.00 0.00 0.00 78 1014.1
20260506210700 15 232 0.0 0.0 0.00 0.00 0.00 78 1014.1
20260506210408 15 232 0.0 0.0 0.00 0.00 0.00 77 1014.1
20260506210204 15 232 0.0 0.0 0.00 0.00 0.00 77 1014.1
20260506210007 15 232 0.0 3.2 0.00 0.00 0.00 77 1014.2
20260506205754 15 236 0.0 3.2 0.00 0.00 0.00 76 1014.3
20260506205559 15 236 0.0 3.2 0.00 0.00 0.00 76 1014.3
20260506205351 16 233 0.0 3.2 0.00 0.00 0.00 76 1014.3
20260506205151 16 234 0.0 3.2 0.00 0.00 0.00 76 1014.3
20260506204954 16 195 0.0 0.0 0.00 0.00 0.00 76 1014.3
20260506204746 16 200 0.0 0.0 0.00 0.00 0.00 76 1014.3
20260506204550 16 229 0.0 0.0 0.00 0.00 0.00 75 1014.3
20260506204345 16 260 0.0 0.0 0.00 0.00 0.00 75 1014.4
20260506204148 16 232 0.0 0.0 0.00 0.00 0.00 75 1014.4
20260506203939 16 233 0.0 0.0 0.00 0.00 0.00 76 1014.4
20260506203740 16 232 0.0 0.0 0.00 0.00 0.00 76 1014.4
20260506203555 16 232 0.0 0.0 0.00 0.00 0.00 76 1014.4
20260506203304 15 232 0.0 0.0 0.00 0.00 0.00 76 1014.4
20260506203102 15 232 0.0 0.0 0.00 0.00 0.00 76 1014.4
20260506202659 15 232 0.0 0.0 0.00 0.00 0.00 77 1014.2
20260506202437 15 232 0.0 0.0 0.00 0.00 0.00 77 1014.2
20260506202239 15 232 0.0 0.0 0.00 0.00 0.00 77 1014.2
20260506202058 15 232 0.0 0.0 0.00 0.00 0.00 77 1014.2
20260506201815 15 229 0.0 0.0 0.00 0.00 0.00 77 1014.2
20260506201601 16 229 0.0 0.0 0.00 0.00 0.00 77 1014.2
20260506201403 16 229 0.0 0.0 0.00 0.00 0.00 77 1014.2
20260506201159 16 230 0.0 0.0 0.00 0.00 0.00 77 1014.2
20260506201010 16 233 0.0 0.0 0.00 0.00 0.00 77 1014.2
20260506200803 16 232 0.0 0.0 0.00 0.00 0.00 77 1014.2
20260506200603 16 232 0.0 0.0 0.00 0.00 0.00 78 1014.2
20260506200156 16 244 0.0 0.0 0.00 0.00 0.00 78 1014.2
20260506195946 16 232 0.0 0.0 0.00 0.00 0.00 78 1014.2
20260506195732 16 230 0.0 0.0 0.00 0.00 0.00 78 1013.8
20260506195528 16 244 0.0 0.0 0.00 0.00 0.00 78 1013.8
20260506195320 16 237 0.0 0.0 0.00 0.00 0.00 78 1013.8
20260506195121 16 240 0.0 0.0 0.00 0.00 0.00 78 1013.8
20260506194910 16 236 0.0 0.0 0.00 0.00 0.00 78 1013.8
20260506194702 16 261 0.0 0.0 0.00 0.00 0.00 78 1013.8
20260506194434 16 232 0.0 0.0 0.00 0.00 0.00 78 1013.8
20260506194235 16 233 0.0 0.0 0.00 0.00 0.00 78 1013.7
20260506194034 16 230 0.0 0.0 0.00 0.00 0.00 78 1013.7
20260506193620 16 229 0.0 1.6 0.00 0.00 0.00 79 1013.7
20260506193414 16 229 0.0 3.2 0.00 0.00 0.00 79 1013.7
20260506193208 16 229 0.0 3.2 0.00 0.00 0.00 79 1013.7
20260506192945 16 232 0.0 3.2 0.00 0.00 0.00 79 1013.7
20260506192730 16 229 0.0 3.2 0.00 0.00 0.00 79 1013.4
20260506192530 16 223 0.0 3.2 0.00 0.00 0.00 79 1013.4
20260506192338 16 223 0.0 0.0 0.00 0.00 0.00 80 1013.4
20260506192122 16 222 0.0 1.6 0.00 0.00 0.00 80 1013.4
20260506191912 16 223 0.0 1.6 0.00 0.00 0.00 80 1013.4
20260506191511 16 232 0.0 3.2 0.00 0.00 0.00 81 1013.4
20260506191307 16 236 0.0 3.2 0.00 0.00 0.00 81 1013.5
20260506191100 16 230 0.0 3.2 0.00 0.00 0.00 81 1013.5
20260506190857 16 232 0.0 3.2 0.00 0.00 0.00 81 1013.5
20260506190438 16 227 0.0 4.8 0.00 0.00 0.00 82 1013.5
20260506190239 16 229 0.0 4.8 0.00 0.00 0.00 82 1013.5
20260506190013 16 227 0.0 4.8 0.00 0.00 0.00 83 1013.5
20260506185811 16 227 0.0 4.8 0.00 0.00 0.00 83 1013.4
20260506185612 16 241 0.0 3.2 0.00 0.00 0.00 83 1013.4
20260506185422 16 241 0.0 3.2 0.00 0.00 0.00 83 1013.4
20260506185216 16 241 0.0 3.2 0.00 0.00 0.00 84 1013.4
20260506185008 16 282 0.0 3.2 0.00 0.00 0.00 84 1013.4
20260506184804 16 241 0.0 3.2 0.00 0.00 0.00 84 1013.4
20260506184604 16 215 0.0 3.2 0.00 0.00 0.00 84 1013.4
20260506184400 16 232 0.0 0.0 0.00 0.00 0.00 84 1013.2
20260506184208 16 248 0.0 4.8 0.00 0.00 0.00 84 1013.2
20260506184002 16 219 0.0 4.8 0.00 0.00 0.00 84 1013.2
20260506183800 16 217 0.0 4.8 0.00 0.00 0.00 84 1013.2
20260506183549 16 217 0.0 4.8 0.00 0.00 0.00 84 1013.2
20260506183346 16 232 0.0 4.8 0.00 0.00 0.00 84 1013.2
20260506182928 16 236 0.0 1.6 0.00 0.00 0.00 84 1013.2
20260506182729 16 236 0.0 3.2 0.00 0.00 0.00 84 1012.8
20260506182526 16 236 0.0 4.8 0.00 0.00 0.00 84 1012.8
20260506182259 16 234 0.0 4.8 0.00 0.00 0.00 84 1012.8
20260506181845 16 219 0.0 4.8 0.00 0.00 0.00 84 1012.8
20260506181619 16 193 0.0 1.6 0.00 0.00 0.00 83 1012.8
20260506181415 16 193 0.0 1.6 0.00 0.00 0.00 83 1012.8
20260506181215 16 189 0.0 4.8 0.00 0.00 0.00 83 1012.7
20260506180819 16 199 0.0 8.0 0.00 0.00 0.00 83 1012.7
20260506180607 16 222 0.0 8.0 0.00 0.00 0.00 83 1012.7
20260506180412 16 210 1.6 9.7 0.00 0.00 0.00 83 1012.7
20260506180211 16 232 1.6 9.7 0.00 0.00 0.00 82 1012.7
20260506175808 16 203 1.6 9.7 0.00 0.00 0.00 82 1012.5
20260506175559 16 203 1.6 9.7 0.00 0.00 0.00 82 1012.5
20260506175331 17 212 1.6 4.8 0.00 0.00 0.00 82 1012.5
20260506175132 17 196 1.6 4.8 0.00 0.00 0.00 82 1012.5
20260506174932 17 196 1.6 4.8 0.00 0.00 0.00 82 1012.5
20260506174733 17 193 0.0 4.8 0.00 0.00 0.00 82 1012.5
20260506174609 17 226 0.0 4.8 0.00 0.00 0.00 81 1012.5
20260506174302 17 202 0.0 8.0 0.00 0.00 0.00 81 1012.4
20260506174104 17 178 0.0 8.0 0.00 0.00 0.00 81 1012.4
20260506173902 17 195 0.0 8.0 0.00 0.00 0.00 81 1012.4
20260506173705 17 160 0.0 8.0 0.00 0.00 0.00 80 1012.4
20260506173505 17 186 1.6 8.0 0.00 0.00 0.00 80 1012.4
20260506173303 17 209 1.6 8.0 0.00 0.00 0.00 80 1012.4
20260506173052 17 189 1.6 8.0 0.00 0.00 0.00 80 1012.4
20260506172851 17 220 1.6 8.0 0.00 0.00 0.00 79 1012.3
20260506172636 17 198 1.6 9.7 0.00 0.00 0.00 78 1012.3
20260506172443 17 202 1.6 9.7 0.00 0.00 0.00 77 1012.3
20260506172232 17 199 1.6 9.7 0.00 0.00 0.00 77 1012.3
20260506172029 17 198 1.6 9.7 0.00 0.00 0.00 77 1012.3
20260506171823 18 205 1.6 9.7 0.00 0.00 0.00 76 1012.3
20260506171616 18 172 1.6 9.7 0.00 0.00 0.00 75 1012.3
20260506171212 18 178 1.6 4.8 0.00 0.00 0.00 74 1012.3
20260506171013 18 189 1.6 4.8 0.00 0.00 0.00 73 1012.3
20260506170813 18 192 1.6 11.3 0.00 0.00 0.00 72 1012.3
20260506170617 18 205 1.6 11.3 0.00 0.00 0.00 72 1012.3
20260506170414 18 185 1.6 11.3 0.00 0.00 0.00 71 1012.3
20260506170207 18 198 1.6 11.3 0.00 0.00 0.00 70 1012.3
20260506170014 18 200 1.6 11.3 0.00 0.00 0.00 69 1012.3
20260506165824 18 147 1.6 8.0 0.00 0.00 0.00 69 1012.3
20260506165620 18 188 1.6 8.0 0.00 0.00 0.00 68 1012.3
20260506165433 18 188 1.6 9.7 0.00 0.00 0.00 67 1012.3
20260506165238 18 200 1.6 9.7 0.00 0.00 0.00 67 1012.3
20260506165105 18 174 1.6 9.7 0.00 0.00 0.00 65 1012.3
20260506164803 18 121 3.2 11.3 0.00 0.00 0.00 65 1012.3
20260506164602 18 191 3.2 11.3 0.00 0.00 0.00 64 1012.3
20260506164150 18 202 4.8 12.9 0.00 0.00 0.00 63 1012.3
20260506163956 19 178 4.8 12.9 0.00 0.00 0.00 63 1012.4
20260506163803 19 210 3.2 12.9 0.00 0.00 0.00 61 1012.4
20260506163629 19 200 4.8 12.9 0.00 0.00 0.00 61 1012.4
20260506163340 19 224 4.8 12.9 0.00 0.00 0.00 61 1012.4
20260506163141 19 213 3.2 16.1 0.00 0.00 0.00 61 1012.4
20260506162944 19 184 3.2 17.7 0.00 0.00 0.00 60 1012.4
20260506162734 19 185 3.2 17.7 0.00 0.00 0.00 60 1012.4
20260506162540 19 167 3.2 17.7 0.00 0.00 0.00 60 1012.4
20260506162349 19 186 3.2 17.7 0.00 0.00 0.00 59 1012.4
20260506162202 19 176 3.2 17.7 0.00 0.00 0.00 59 1012.4
20260506162031 19 154 3.2 9.7 0.00 0.00 0.00 58 1012.4
20260506161722 20 189 3.2 16.1 0.00 0.00 0.00 58 1012.4
20260506161523 20 192 4.8 16.1 0.00 0.00 0.00 58 1012.4
20260506161317 20 178 4.8 16.1 0.00 0.00 0.00 58 1012.5
20260506161114 20 182 3.2 16.1 0.00 0.00 0.00 58 1012.5
20260506160926 20 179 3.2 16.1 0.00 0.00 0.00 58 1012.5
20260506160705 20 171 3.2 16.1 0.00 0.00 0.00 58 1012.5
20260506160500 20 223 1.6 11.3 0.00 0.00 0.00 58 1012.5
20260506160311 20 158 1.6 11.3 0.00 0.00 0.00 58 1012.5
20260506160133 20 172 1.6 11.3 0.00 0.00 0.00 58 1012.5
20260506155950 20 208 1.6 9.7 0.00 0.00 0.00 58 1012.6
20260506155700 20 179 1.6 9.7 0.00 0.00 0.00 59 1012.6
20260506155532 20 150 1.6 9.7 0.00 0.00 0.00 59 1012.6
20260506155238 20 206 1.6 11.3 0.00 0.00 0.00 60 1012.6
20260506155039 20 165 1.6 11.3 0.00 0.00 0.00 60 1012.6
20260506154845 21 168 1.6 11.3 0.00 0.00 0.00 60 1012.6
20260506154659 21 130 1.6 11.3 0.00 0.00 0.00 60 1012.6
20260506154523 21 188 1.6 11.3 0.00 0.00 0.00 60 1012.6
20260506154228 21 148 1.6 9.7 0.00 0.00 0.00 60 1012.7
20260506154029 21 119 1.6 9.7 0.00 0.00 0.00 60 1012.7
20260506153832 21 134 1.6 4.8 0.00 0.00 0.00 60 1012.7
20260506153701 21 141 1.6 4.8 0.00 0.00 0.00 60 1012.7
20260506153410 21 141 3.2 22.5 0.00 0.00 0.00 60 1012.7
20260506153221 21 138 3.2 22.5 0.00 0.00 0.00 60 1012.7
20260506153046 21 167 1.6 22.5 0.00 0.00 0.00 60 1012.7
20260506152800 21 137 3.2 22.5 0.00 0.00 0.00 60 1012.7
20260506152554 21 145 3.2 22.5 0.00 0.00 0.00 60 1012.7
20260506152359 21 162 1.6 11.3 0.00 0.00 0.00 60 1012.7
20260506152158 21 124 1.6 11.3 0.00 0.00 0.00 60 1012.7
20260506151950 21 128 1.6 11.3 0.00 0.00 0.00 60 1012.7
20260506151748 21 127 1.6 12.9 0.00 0.00 0.00 60 1012.7
20260506151550 21 141 1.6 12.9 0.00 0.00 0.00 60 1012.7
20260506151352 21 222 3.2 12.9 0.00 0.00 0.00 61 1012.7
20260506151206 21 168 3.2 12.9 0.00 0.00 0.00 62 1012.7
20260506151025 21 158 3.2 12.9 0.00 0.00 0.00 62 1012.7
20260506150742 21 123 3.2 12.9 0.00 0.00 0.00 62 1012.7
20260506150535 21 161 3.2 12.9 0.00 0.00 0.00 63 1012.7
20260506150339 21 223 3.2 11.3 0.00 0.00 0.00 63 1012.7
20260506150135 21 127 4.8 12.9 0.00 0.00 0.00 63 1012.7
20260506145936 21 147 4.8 12.9 0.00 0.00 0.00 63 1012.7
20260506145747 21 171 4.8 12.9 0.00 0.00 0.00 63 1012.6
20260506145546 21 178 4.8 12.9 0.00 0.00 0.00 63 1012.6
20260506145400 21 165 4.8 12.9 0.00 0.00 0.00 63 1012.6
20260506145216 21 114 4.8 12.9 0.00 0.00 0.00 63 1012.6
20260506145025 21 110 4.8 16.1 0.00 0.00 0.00 62 1012.6
20260506144739 21 154 4.8 16.1 0.00 0.00 0.00 62 1012.6
20260506144537 21 127 4.8 16.1 0.00 0.00 0.00 62 1012.6
20260506144345 21 138 3.2 16.1 0.00 0.00 0.00 62 1012.7
20260506144131 21 127 3.2 16.1 0.00 0.00 0.00 63 1012.7
20260506143932 21 137 3.2 11.3 0.00 0.00 0.00 62 1012.7
20260506143731 21 117 3.2 11.3 0.00 0.00 0.00 62 1012.7
20260506143535 21 136 3.2 9.7 0.00 0.00 0.00 62 1012.7
20260506143334 21 179 4.8 11.3 0.00 0.00 0.00 62 1012.7
20260506143146 21 176 4.8 11.3 0.00 0.00 0.00 62 1012.7
20260506143014 21 158 4.8 12.9 0.00 0.00 0.00 61 1012.7
20260506142724 21 121 4.8 12.9 0.00 0.00 0.00 61 1012.8
20260506142525 21 169 4.8 12.9 0.00 0.00 0.00 61 1012.8
20260506142327 21 172 4.8 12.9 0.00 0.00 0.00 61 1012.8
20260506142138 21 143 4.8 12.9 0.00 0.00 0.00 61 1012.8
20260506141938 21 133 4.8 11.3 0.00 0.00 0.00 62 1012.8
20260506141735 21 154 4.8 12.9 0.00 0.00 0.00 63 1012.8
20260506141536 21 102 4.8 12.9 0.00 0.00 0.00 62 1012.8
20260506141334 21 110 4.8 12.9 0.00 0.00 0.00 62 1012.8
20260506141145 21 140 4.8 12.9 0.00 0.00 0.00 62 1012.8
20260506141014 21 141 4.8 12.9 0.00 0.00 0.00 64 1012.8
20260506140723 21 131 4.8 12.9 0.00 0.00 0.00 64 1012.8
20260506140523 21 127 4.8 14.5 0.00 0.00 0.00 65 1012.8
20260506140324 21 137 6.4 14.5 0.00 0.00 0.00 64 1012.8
20260506140117 21 121 6.4 16.1 0.00 0.00 0.00 64 1012.8
20260506135917 21 123 6.4 16.1 0.00 0.00 0.00 64 1012.8
20260506135714 21 127 6.4 16.1 0.00 0.00 0.00 64 1012.9
20260506135520 21 161 6.4 16.1 0.00 0.00 0.00 63 1012.9
20260506135332 21 189 6.4 16.1 0.00 0.00 0.00 62 1012.9
20260506135145 21 148 6.4 12.9 0.00 0.00 0.00 61 1012.9
20260506134957 21 131 6.4 11.3 0.00 0.00 0.00 61 1012.9
20260506134700 21 148 6.4 11.3 0.00 0.00 0.00 60 1012.9
20260506134458 21 126 6.4 11.3 0.00 0.00 0.00 60 1012.9
20260506134058 21 133 6.4 11.3 0.00 0.00 0.00 60 1013.0
20260506133859 21 131 4.8 11.3 0.00 0.00 0.00 60 1013.0